Header for Extended Forecast Station List Page

Search by: ID | Name | Date | Parm | Value | Avg | % Avg
Sort by: ID | Name | Date | Parm | Value | Avg | % Avg

Enter search or view all records.

Click on id for station plot
#IDNameDateParmValueAvg% Avg
0BONM8BLACKFOOT-NEAR BONNER02-20-2024DISCHARGE (KAF)39461664
1CABI1CLARK FORK-CABINET GORGE DAM02-20-2024INFLOW (KAF)5212752069
2TONW1OKANOGAN-NEAR TONASKET02-20-2024DISCHARGE (KAF)844121669
3ABOM8CLARK FORK-ABOVE MISSOULA02-20-2024DISCHARGE (KAF)757107870
4NOXM8CLARK FORK-NOXON RAPIDS DAM02-20-2024INFLOW (KAF)4708671370
5CIBW1COLUMBIA-AT INTL BOUNDARY02-20-2024DISCHARGE (KAF)168382406370
6CHJW1COLUMBIA-CHIEF JOSEPH DAM02-20-2024INFLOW (KAF)199852768672
7WELW1COLUMBIA-WELLS DAM02-20-2024INFLOW (KAF)213562975872
8RRHW1COLUMBIA-ROCKY REACH DAM02-20-2024INFLOW (KAF)218333048072
9WANW1COLUMBIA-WANAPUM DAM02-20-2024INFLOW (KAF)227833179872
10PRWW1COLUMBIA-PRIEST RAPIDS DAM02-20-2024INFLOW (KAF)227893186372
11BELM8CLARK FORK-BELOW MISSOULA02-20-2024DISCHARGE (KAF)1478202473
12SRGM8CLARK FORK-AT ST REGIS02-20-2024DISCHARGE (KAF)1968269073
13FCFM8NF FLATHEAD-NEAR COLUMBIA FALLS02-20-2024DISCHARGE (KAF)887117675
14MCDW1COLUMBIA-MCNARY DAM02-20-2024INFLOW (KAF)384335105475
15RCCM8ROCK CREEK-NEAR CLINTON02-20-2024DISCHARGE (KAF)14719376
16GCDW1COLUMBIA-GRAND COULEE DAM02-20-2024INFLOW (KAF)210012770376
17KERM8FLATHEAD-SELI’Š KSANKA QLISPE’ DAM02-20-2024INFLOW (KAF)3166409177
18ALFW1PEND OREILLE-ALBENI FALLS DAM02-20-2024INFLOW (KAF)6773880577
19CHDW1CHELAN-LAKE CHELAN DAM02-20-2024INFLOW (KAF)56173377
20JDAO3COLUMBIA-JOHN DAY DAM02-20-2024INFLOW (KAF)410285307677
21BONO3COLUMBIA-BONNEVILLE DAM02-20-2024INFLOW (KAF)428075562477
22TDAO3COLUMBIA-THE DALLES DAM02-20-2024INFLOW (KAF)415145350078
23LYDM8KOOTENAI-LIBBY DAM02-20-2024INFLOW (KAF)2910366379
24CFMM8FLATHEAD-AT COLUMBIA FALLS02-20-2024DISCHARGE (KAF)2601328579
25BITM8BITTERROOT-NEAR MISSOULA02-20-2024DISCHARGE (KAF)72190580
26PATW1METHOW-NEAR PATEROS02-20-2024DISCHARGE (KAF)53766780
27PARW1YAKIMA-NEAR PARKER02-20-2024DISCHARGE (KAF)58372081
28SPDI1CLEARWATER-AT SPALDING02-20-2024DISCHARGE (KAF)4716583481
29WGCM8MF FLATHEAD-NEAR WEST GLACIER02-20-2024DISCHARGE (KAF)920112782
30WHBI1SALMON-AT WHITEBIRD02-20-2024DISCHARGE (KAF)3638445482
31LGDW1SNAKE-LOWER GRANITE DAM02-20-2024INFLOW (KAF)145661782882
32LGSW1SNAKE-LITTLE GOOSE DAM02-20-2024INFLOW (KAF)145661786282
33LMNW1SNAKE-LOWER MONUMENTAL DAM02-20-2024INFLOW (KAF)146881800982
34IHDW1SNAKE-ICE HARBOR DAM02-20-2024INFLOW (KAF)146891801482
35SPOW1SPOKANE-AT SPOKANE02-20-2024DISCHARGE (KAF)2196265183
36LLKW1SPOKANE-AT LONGLAKE02-20-2024INFLOW (KAF)2496297984
37CSDI1NF PAYETTE-CASCADE DAM02-20-2024INFLOW (KAF)36643784
38EMMI1PAYETTE-NEAR EMMETT02-20-2024DISCHARGE (KAF)900107784
39TCHW1WALLA WALLA-NEAR TOUCHET02-20-2024DISCHARGE (KAF)17320485
40HHWM8SF FLATHEAD-HUNGRY HORSE DAM02-20-2024INFLOW (KAF)1312151786
41KIOW1YAKIMA-AT KIONA02-20-2024DISCHARGE (KAF)905105586
42ANAW1SNAKE-NEAR ANATONE02-20-2024DISCHARGE (KAF)98541148786
43STRM8ST. REGIS-NEAR ST. REGIS02-20-2024DISCHARGE (KAF)20523787
44COEI1COEUR D ALENE-COEUR D ALENE LAKE02-20-2024INFLOW (KAF)2297262987
45DWRI1NF CLEARWATER-DWORSHAK DAM02-20-2024INFLOW (KAF)2094240987
46DRMM8CLARK FORK-NR DRUMMOND02-20-2024DISCHARGE (KAF)18721488
47ALPW4SNAKE-NEAR ALPINE02-20-2024DISCHARGE (KAF)1170132588
48DEDI1DEADWOOD-NEAR LOWMAN02-20-2024INFLOW (KAF)8910188
49MYKO3MCKAY CREEK-NEAR PILOT ROCK02-20-2024DISCHARGE (KAF)343888
50JKSW4SNAKE-NEAR JACKSON02-20-2024DISCHARGE (KAF)917102789
51ORFI1CLEARWATER-AT OROFINO02-20-2024DISCHARGE (KAF)3555397489
52DLGM8CLARK FORK-AT DEER LODGE02-20-2024DISCHARGE (KAF)687590
53PESW1WENATCHEE-AT PESHASTIN02-20-2024DISCHARGE (KAF)966107390
54LEOI1KOOTENAI-AT LEONIA02-20-2024DISCHARGE (KAF)3168335894
55ARDW1ENTIAT-NEAR ARDENVOIR02-20-2024DISCHARGE (KAF)13314294
56EASW1YAKIMA-AT EASTON02-20-2024DISCHARGE (KAF)939994
57UMTW1YAKIMA-AT UMTANUM02-20-2024DISCHARGE (KAF)60163495
58IPDI1HENRYS FORK-ISLAND PARK DAM02-20-2024INFLOW (KAF)15616396
59RILW1TIETON-RIMROCK LAKE NEAR RIMROCK02-20-2024INFLOW (KAF)15015597
60KADW1KACHESS-KACHESS DAM02-20-2024INFLOW (KAF)969998
61PLDI1SF SNAKE-PALISADES DAM02-20-2024INFLOW (KAF)1960198199
62NACW1NACHES-NEAR NACHES02-20-2024DISCHARGE (KAF)486487100
63JLKW4SNAKE-JACKSON LAKE AT DAM02-20-2024INFLOW (KAF)563563100
64LAUW1KETTLE-AT LAURIER02-20-2024DISCHARGE (KAF)15391525101
65UMAO3UMATILLA-NEAR UMATILLA02-20-2024DISCHARGE (KAF)170168101
66CLFW1NACHES-NEAR CLIFFDEL02-20-2024DISCHARGE (KAF)334329102
67SWAI1SNAKE-BELOW SWAN FALLS02-20-2024DISCHARGE (KAF)19221893102
68CLUW1CLE ELUM-CLE ELUM LAKE02-20-2024INFLOW (KAF)321312103
69KEDW1YAKIMA-KEECHELUS LAKE02-20-2024INFLOW (KAF)110106104
70ANTI1HENRYS FORK-AT ST. ANTHONY02-20-2024DISCHARGE (KAF)610586104
71GIBO3UMATILLA-NEAR GIBBON02-20-2024DISCHARGE (KAF)9188104
72WSRI1WEISER-NEAR WEISER02-20-2024DISCHARGE (KAF)439417105
73SATI1ST MARIES-NEAR SANTA02-20-2024DISCHARGE (KAF)145137106
74WEII1SNAKE-AT WEISER02-20-2024DISCHARGE (KAF)42964001107
75TRYO3GRANDE RONDE-TROY02-20-2024DISCHARGE (KAF)13791286107
76UNDW1WHITE SALMON-NEAR UNDERWOOD02-20-2024DISCHARGE (KAF)363339107
77PDTO3UMATILLA-AT PENDLETON02-20-2024DISCHARGE (KAF)205189108
78MODO3DESCHUTES-AT MOODY NR BIGGS02-20-2024DISCHARGE (KAF)15381421108
79TNAW1TEANAWAY-BELOW FORKS02-20-2024DISCHARGE (KAF)146134109
80BUDW1BUMPING-BUMPING LAKE DAM02-20-2024INFLOW (KAF)10294109
81CHEI1FALL RIVER-NEAR CHESTER02-20-2024DISCHARGE (KAF)323295109
82REXI1HENRYS FORK-AT REXBURG02-20-2024DISCHARGE (KAF)745682109
83HALI1BIG WOOD-AT HAILEY02-20-2024DISCHARGE (KAF)167153109
84BRNI1SNAKE-BROWNLEE DAM02-20-2024INFLOW (KAF)48724479109
85HEII1SNAKE-NEAR HEISE02-20-2024DISCHARGE (KAF)20261791113
86PRTI1PRIEST-NEAR PRIEST RIVER02-20-2024DISCHARGE (KAF)816717114
87LWRI1LITTLE WOOD-LITTLE WOOD DAM02-20-2024INFLOW (KAF)5951115
88TEAI1TETON-NEAR ST. ANTHONY02-20-2024DISCHARGE (KAF)312269116
89ARAI1SF BOISE-ANDERSON RANCH DAM02-20-2024INFLOW (KAF)439373118
90PITW1KLICKITAT-NEAR PITT02-20-2024DISCHARGE (KAF)602504119
91LUCI1BOISE-LUCKY PEAK DAM02-20-2024INFLOW (KAF)1093898122
92MONO3NF JOHN DAY-AT MONUMENT02-20-2024DISCHARGE (KAF)735604122
93MAGI1BIG WOOD-MAGIC DAM02-20-2024INFLOW (KAF)188154123
94HODO3HOOD-NEAR TUCKER BRIDGE02-20-2024DISCHARGE (KAF)320255126
95HWRI1BIG LOST-AT HOWELL RANCH NEAR CHILLY02-20-2024DISCHARGE (KAF)11591127
96SHYI1SNAKE-NEAR SHELLEY02-20-2024DISCHARGE (KAF)19401487130
97SERO3JOHN DAY-AT SERVICE CK02-20-2024DISCHARGE (KAF)1117860130
98SIFI1SNAKE-AB EAGLE ROCK NR IDAHO FALLS02-20-2024DISCHARGE (KAF)20651581131
99AFRI1SNAKE-AMERICAN FALLS RESERVOIR02-20-2024INFLOW (KAF)22871714133
100BERO3MALHEUR-AGENCY VALLEY DAM02-20-2024INFLOW (KAF)7852150
101BFTI1SNAKE-NEAR BLACKFOOT02-20-2024DISCHARGE (KAF)16101069151
102MACI1BIG LOST-MACKAY RESERVOIR NEAR MACKAY02-20-2024INFLOW (KAF)10066151
103SNAI1SNAKE-AT BLACKFOOT02-20-2024DISCHARGE (KAF)16431075153
104HOTI1BRUNEAU-NEAR HOT SPRINGS02-20-2024DISCHARGE (KAF)234145161
105WRMO3MALHEUR-WARM SPRINGS DAM02-20-2024INFLOW (KAF)12779161
106PIHI1PORTNEUF-AT POCATELLO02-20-2024DISCHARGE (KAF)13373181
107PARI1BOISE-NEAR PARMA02-20-2024DISCHARGE (KAF)495255194
108RIDI1WILLOW CREEK-RIRIE DAM02-20-2024INFLOW (KAF)7939201
109OWYO3OWYHEE-OWYHEE DAM02-20-2024INFLOW (KAF)559268209
110BIGI1BOISE-AT GLENWOOD BRIDGE02-20-2024DISCHARGE (KAF)466208224
111BULO3BULLY CREEK-BULLY CREEK DAM02-20-2024INFLOW (KAF)344767
112BFEI1KOOTENAI-AT BONNERS FERRY02-20-2024STAGE (FT)MMM
113HOPI1PEND OREILLE-LAKE PEND OREILLE NR HOPE02-20-2024LAKE ELEVATION (FT)MMM
114SJMI1ST JOE-AT ST MARIES02-20-2024STAGE (FT)MMM
115MILI1SNAKE-AT MILNER02-20-2024DISCHARGE (KAF)M55M